QPF
0.00 0.00 0.00 0.00 0.03 0.13 0.20 0.07 0.01 0.00 0.01 0.00 0.00 0.00 0.01 0.01 0.03 0.10 0.02 0.00 0.00 0.00 0.00 0.00 0.00 0.00 0.01 0.01 0.02 0.03 0.04 0.04 0.03 0.03 0.02 0.02 0.01 0.01 0.00 0.00 0.00 0.00 0.00 0.00 0.01 0.01 0.01 0.00 0.01
0.00 0.00 0.00 0.00 0.06 0.28 0.26 0.06 0.01 0.00 0.00 0.00 0.00 0.00 0.00 0.00 0.00 0.00 0.00 0.00 0.00 0.00 0.00 0.00 0.00 0.00 0.00 0.01 0.02 0.03 0.04 0.05 0.04 0.03 0.03 0.02 0.01 0.01 0.01 0.00 0.00 0.00 0.00 0.00 0.00 0.00 0.00 0.00 0.00
0.00 0.00 0.00 0.01 0.04 0.12 0.10 0.02 0.00 0.00 0.00 0.00 0.00 0.00 0.00 0.00 0.00 0.00 0.00 0.00 0.00 0.00 0.00 0.00 0.00 0.00 0.00 0.01 0.01 0.03 0.04 0.05 0.05 0.04 0.02 0.02 0.02 0.01 0.01 0.00 0.00 0.00 0.00 0.00 0.00 0.00 0.00 0.00 0.00
0.00 0.00 0.00 0.01 0.03 0.03 0.02 0.01 0.00 0.00 0.00 0.00 0.01 0.01 0.00 0.00 0.00 0.00 0.00 0.00 0.00 0.00 0.00 0.00 0.00 0.00 0.00 0.01 0.01 0.02 0.03 0.04 0.04 0.03 0.02 0.02 0.01 0.01 0.01 0.01 0.01 0.00 0.00 0.01 0.01 0.00 0.00 0.00 0.00
0.00 0.00 0.00 0.03 0.06 0.03 0.02 0.01 0.01 0.01 0.01 0.00 0.02 0.02 0.01 0.00 0.00 0.00 0.00 0.00 0.00 0.00 0.00 0.00 0.00 0.00 0.00 0.01 0.01 0.02 0.02 0.02 0.02 0.02 0.02 0.01 0.01 0.01 0.01 0.01 0.01 0.01 0.01 0.01 0.01 0.01 0.00 0.00 0.00
0.00 0.00 0.00 0.01 0.03 0.03 0.02 0.01 0.00 0.02 0.03 0.01 0.03 0.04 0.02 0.01 0.00 0.00 0.00 0.00 0.00 0.00 0.00 0.00 0.00 0.00 0.00 0.00 0.01 0.01 0.01 0.01 0.02 0.02 0.01 0.01 0.01 0.01 0.01 0.01 0.01 0.01 0.01 0.01 0.01 0.01 0.01 0.01 0.01
0.00 0.00 0.00 0.00 0.01 0.04 0.02 0.00 0.01 0.04 0.06 0.03 0.02 0.05 0.05 0.03 0.01 0.00 0.00 0.00 0.00 0.00 0.00 0.00 0.00 0.00 0.00 0.00 0.00 0.01 0.01 0.02 0.02 0.02 0.01 0.01 0.01 0.01 0.01 0.02 0.02 0.02 0.01 0.01 0.01 0.01 0.01 0.02 0.01
0.00 0.00 0.00 0.00 0.00 0.01 0.00 0.00 0.01 0.03 0.04 0.03 0.02 0.08 0.12 0.10 0.05 0.00 0.00 0.00 0.00 0.00 0.00 0.00 0.00 0.01 0.01 0.01 0.01 0.01 0.01 0.02 0.02 0.02 0.01 0.01 0.01 0.01 0.02 0.02 0.03 0.02 0.03 0.03 0.02 0.02 0.02 0.02 0.01
0.00 0.00 0.00 0.00 0.00 0.00 0.00 0.00 0.01 0.04 0.03 0.02 0.02 0.05 0.08 0.04 0.04 0.01 0.00 0.00 0.00 0.01 0.01 0.00 0.00 0.01 0.02 0.02 0.02 0.02 0.02 0.02 0.02 0.03 0.03 0.02 0.04 0.07 0.09 0.08 0.07 0.04 0.03 0.03 0.03 0.02 0.03 0.03 0.02
0.00 0.00 0.00 0.00 0.00 0.00 0.00 0.00 0.04 0.11 0.11 0.11 0.06 0.06 0.03 0.01 0.01 0.01 0.01 0.01 0.02 0.03 0.04 0.03 0.02 0.03 0.04 0.03 0.05 0.05 0.06 0.08 0.06 0.10 0.11 0.11 0.13 0.13 0.12 0.15 0.10 0.07 0.05 0.04 0.04 0.03 0.03 0.03 0.03
0.00 0.00 0.00 0.00 0.00 0.00 0.00 0.00 0.03 0.10 0.32 0.33 0.21 0.14 0.08 0.01 0.00 0.01 0.01 0.02 0.04 0.04 0.05 0.13 0.08 0.05 0.03 0.04 0.06 0.08 0.10 0.16 0.12 0.12 0.13 0.16 0.15 0.12 0.11 0.16 0.16 0.14 0.11 0.10 0.08 0.06 0.04 0.07 0.10
0.00 0.00 0.00 0.00 0.00 0.00 0.00 0.01 0.06 0.11 0.36 0.37 0.26 0.11 0.04 0.03 0.04 0.02 0.02 0.02 0.02 0.03 0.03 0.04 0.05 0.04 0.04 0.05 0.06 0.08 0.09 0.12 0.11 0.12 0.11 0.16 0.16 0.14 0.15 0.19 0.20 0.18 0.19 0.19 0.15 0.14 0.12 0.13 0.15
0.00 0.00 0.00 0.00 0.00 0.00 0.00 0.02 0.06 0.11 0.19 0.18 0.15 0.09 0.04 0.04 0.06 0.04 0.04 0.03 0.01 0.02 0.03 0.03 0.02 0.04 0.05 0.05 0.07 0.08 0.08 0.09 0.11 0.12 0.11 0.12 0.15 0.16 0.16 0.19 0.20 0.18 0.20 0.21 0.18 0.17 0.19 0.20 0.17
0.00 0.00 0.00 0.00 0.00 0.00 0.00 0.03 0.06 0.09 0.11 0.10 0.06 0.06 0.07 0.08 0.12 0.15 0.13 0.11 0.04 0.03 0.02 0.02 0.03 0.05 0.06 0.06 0.09 0.10 0.08 0.11 0.11 0.11 0.10 0.10 0.14 0.17 0.15 0.15 0.16 0.14 0.14 0.16 0.16 0.16 0.18 0.17 0.17
0.00 0.00 0.03 0.02 0.01 0.00 0.02 0.08 0.17 0.12 0.08 0.10 0.10 0.10 0.11 0.11 0.16 0.19 0.19 0.10 0.04 0.03 0.02 0.04 0.05 0.07 0.09 0.10 0.11 0.09 0.08 0.13 0.15 0.10 0.10 0.10 0.13 0.16 0.14 0.12 0.11 0.11 0.10 0.12 0.13 0.13 0.14 0.13 0.13
0.00 0.01 0.07 0.05 0.01 0.02 0.04 0.22 0.22 0.13 0.14 0.16 0.12 0.11 0.11 0.12 0.18 0.15 0.09 0.04 0.03 0.04 0.05 0.06 0.06 0.08 0.09 0.09 0.10 0.11 0.10 0.11 0.10 0.08 0.08 0.09 0.11 0.12 0.11 0.09 0.09 0.10 0.10 0.10 0.10 0.10 0.12 0.12 0.13
0.01 0.02 0.05 0.06 0.03 0.06 0.10 0.30 0.27 0.17 0.18 0.18 0.11 0.09 0.10 0.12 0.16 0.14 0.10 0.06 0.05 0.05 0.06 0.06 0.06 0.06 0.08 0.09 0.08 0.10 0.09 0.09 0.08 0.08 0.09 0.09 0.08 0.07 0.07 0.08 0.08 0.08 0.08 0.08 0.08 0.12 0.11 0.12 0.12
0.01 0.01 0.04 0.08 0.05 0.05 0.13 0.26 0.35 0.27 0.17 0.16 0.10 0.08 0.11 0.12 0.10 0.09 0.06 0.05 0.04 0.04 0.05 0.06 0.06 0.06 0.07 0.07 0.08 0.10 0.09 0.09 0.08 0.07 0.07 0.06 0.06 0.05 0.05 0.06 0.07 0.07 0.08 0.09 0.12 0.15 0.14 0.13 0.13
0.00 0.00 0.02 0.04 0.02 0.02 0.08 0.16 0.24 0.22 0.16 0.12 0.11 0.10 0.13 0.11 0.08 0.07 0.06 0.04 0.04 0.03 0.03 0.03 0.04 0.04 0.05 0.06 0.07 0.07 0.06 0.05 0.05 0.03 0.03 0.03 0.03 0.02 0.03 0.04 0.05 0.05 0.07 0.08 0.08 0.10 0.11 0.11 0.11
0.00 0.01 0.05 0.06 0.02 0.02 0.06 0.10 0.16 0.17 0.09 0.08 0.07 0.08 0.07 0.05 0.04 0.03 0.03 0.03 0.02 0.02 0.02 0.02 0.03 0.03 0.03 0.04 0.04 0.04 0.03 0.02 0.02 0.01 0.01 0.01 0.01 0.01 0.02 0.03 0.03 0.03 0.04 0.04 0.05 0.06 0.06 0.05 0.07
0.01 0.01 0.03 0.04 0.01 0.04 0.08 0.13 0.11 0.09 0.06 0.05 0.04 0.04 0.04 0.03 0.02 0.01 0.01 0.01 0.01 0.01 0.01 0.01 0.02 0.02 0.02 0.02 0.02 0.03 0.02 0.02 0.02 0.01 0.02 0.01 0.00 0.01 0.01 0.01 0.01 0.02 0.01 0.02 0.04 0.04 0.04 0.05 0.05
0.01 0.00 0.00 0.01 0.02 0.09 0.09 0.18 0.14 0.06 0.04 0.03 0.03 0.04 0.05 0.03 0.01 0.02 0.02 0.01 0.00 0.00 0.01 0.01 0.01 0.01 0.01 0.01 0.02 0.02 0.02 0.02 0.02 0.02 0.02 0.02 0.01 0.00 0.00 0.01 0.01 0.01 0.01 0.01 0.01 0.03 0.04 0.05 0.04
0.00 0.00 0.00 0.00 0.01 0.06 0.03 0.09 0.10 0.07 0.03 0.03 0.04 0.04 0.02 0.03 0.04 0.05 0.03 0.00 0.00 0.00 0.01 0.01 0.01 0.01 0.01 0.01 0.02 0.02 0.02 0.02 0.02 0.01 0.02 0.01 0.01 0.01 0.00 0.01 0.01 0.01 0.01 0.01 0.01 0.02 0.02 0.03 0.03
0.00 0.01 0.04 0.05 0.10 0.13 0.04 0.04 0.05 0.05 0.04 0.02 0.03 0.04 0.02 0.02 0.05 0.05 0.02 0.00 0.00 0.01 0.01 0.01 0.02 0.03 0.01 0.01 0.02 0.02 0.02 0.02 0.01 0.01 0.02 0.01 0.01 0.01 0.01 0.01 0.01 0.01 0.01 0.01 0.02 0.02 0.02 0.03 0.03
0.00 0.04 0.17 0.19 0.24 0.17 0.03 0.01 0.01 0.00 0.01 0.01 0.03 0.04 0.03 0.03 0.02 0.01 0.00 0.00 0.00 0.01 0.01 0.01 0.02 0.03 0.02 0.01 0.01 0.01 0.02 0.02 0.01 0.01 0.01 0.01 0.01 0.01 0.01 0.01 0.01 0.01 0.02 0.01 0.01 0.02 0.02 0.02 0.03
0.00 0.02 0.09 0.11 0.13 0.10 0.03 0.01 0.00 0.00 0.00 0.00 0.01 0.03 0.04 0.02 0.01 0.00 0.00 0.00 0.00 0.00 0.00 0.00 0.01 0.02 0.02 0.01 0.01 0.01 0.01 0.01 0.00 0.00 0.00 0.00 0.00 0.00 0.00 0.01 0.01 0.01 0.01 0.01 0.02 0.02 0.02 0.03 0.04
0.00 0.00 0.01 0.01 0.04 0.08 0.03 0.01 0.00 0.00 0.00 0.00 0.00 0.01 0.01 0.00 0.00 0.00 0.00 0.00 0.00 0.00 0.00 0.00 0.01 0.01 0.01 0.00 0.00 0.00 0.00 0.00 0.00 0.00 0.01 0.01 0.01 0.00 0.00 0.01 0.01 0.01 0.01 0.01 0.02 0.02 0.02 0.03 0.03
0.00 0.00 0.00 0.00 0.02 0.05 0.05 0.02 0.00 0.00 0.00 0.00 0.00 0.00 0.00 0.00 0.00 0.00 0.00 0.00 0.00 0.00 0.00 0.00 0.00 0.00 0.00 0.00 0.00 0.00 0.00 0.00 0.00 0.01 0.01 0.01 0.01 0.01 0.01 0.01 0.01 0.01 0.01 0.02 0.02 0.02 0.03 0.03 0.04
0.01 0.01 0.00 0.00 0.00 0.02 0.09 0.05 0.01 0.00 0.00 0.00 0.00 0.00 0.00 0.00 0.00 0.00 0.00 0.00 0.00 0.00 0.00 0.00 0.00 0.00 0.00 0.00 0.00 0.00 0.00 0.00 0.00 0.01 0.01 0.01 0.01 0.01 0.01 0.02 0.02 0.01 0.02 0.02 0.03 0.02 0.02 0.03 0.03
0.00 0.00 0.00 0.00 0.00 0.00 0.01 0.02 0.00 0.00 0.00 0.00 0.00 0.00 0.00 0.00 0.00 0.00 0.00 0.00 0.00 0.00 0.00 0.00 0.00 0.00 0.00 0.00 0.00 0.00 0.00 0.00 0.01 0.01 0.01 0.01 0.01 0.01 0.02 0.02 0.02 0.01 0.02 0.02 0.03 0.03 0.03 0.03 0.03
MSLP
1009.07 1009.89 1010.76 1011.48 1011.87 1011.79 1011.20 1010.19 1008.90 1007.56 1006.41 1005.60 1005.25 1005.34 1005.79 1006.43 1007.12 1007.72 1008.15 1008.44 1008.63 1008.84 1009.14 1009.60 1010.22 1010.95 1011.69 1012.36 1012.90 1013.26 1013.47 1013.60 1013.73 1013.91 1014.20 1014.58 1015.02 1015.45 1015.82 1016.07 1016.20 1016.24 1016.23 1016.23 1016.27 1016.37 1016.52 1016.68 1016.82
1009.36 1010.18 1010.97 1011.53 1011.70 1011.39 1010.59 1009.42 1008.04 1006.70 1005.60 1004.90 1004.66 1004.86 1005.38 1006.08 1006.80 1007.42 1007.89 1008.23 1008.50 1008.81 1009.21 1009.77 1010.46 1011.22 1011.98 1012.63 1013.14 1013.48 1013.68 1013.81 1013.95 1014.16 1014.45 1014.82 1015.23 1015.61 1015.92 1016.11 1016.20 1016.23 1016.23 1016.27 1016.36 1016.51 1016.70 1016.89 1017.03
1009.64 1010.41 1011.06 1011.40 1011.33 1010.78 1009.80 1008.51 1007.12 1005.84 1004.86 1004.31 1004.20 1004.50 1005.09 1005.82 1006.54 1007.16 1007.65 1008.03 1008.39 1008.79 1009.30 1009.95 1010.71 1011.51 1012.27 1012.91 1013.40 1013.72 1013.92 1014.06 1014.22 1014.44 1014.74 1015.09 1015.45 1015.77 1016.00 1016.13 1016.18 1016.20 1016.22 1016.30 1016.45 1016.66 1016.90 1017.11 1017.24
1009.86 1010.52 1010.97 1011.07 1010.74 1009.97 1008.85 1007.52 1006.18 1005.03 1004.22 1003.83 1003.88 1004.27 1004.90 1005.62 1006.32 1006.92 1007.41 1007.84 1008.27 1008.77 1009.39 1010.13 1010.96 1011.80 1012.55 1013.18 1013.64 1013.94 1014.14 1014.30 1014.48 1014.72 1015.02 1015.36 1015.67 1015.93 1016.10 1016.17 1016.19 1016.19 1016.24 1016.36 1016.57 1016.83 1017.10 1017.32 1017.44
1009.96 1010.46 1010.68 1010.53 1009.96 1009.03 1007.82 1006.52 1005.29 1004.31 1003.70 1003.50 1003.69 1004.16 1004.80 1005.49 1006.13 1006.69 1007.17 1007.63 1008.14 1008.74 1009.46 1010.30 1011.18 1012.04 1012.79 1013.39 1013.81 1014.10 1014.30 1014.47 1014.68 1014.94 1015.25 1015.58 1015.87 1016.08 1016.20 1016.23 1016.22 1016.23 1016.30 1016.46 1016.71 1017.01 1017.30 1017.51 1017.61
1009.92 1010.23 1010.21 1009.82 1009.07 1008.02 1006.80 1005.58 1004.52 1003.76 1003.36 1003.34 1003.64 1004.15 1004.77 1005.40 1005.97 1006.47 1006.93 1007.42 1007.98 1008.68 1009.50 1010.41 1011.34 1012.21 1012.94 1013.50 1013.89 1014.15 1014.34 1014.53 1014.76 1015.05 1015.38 1015.71 1016.00 1016.19 1016.28 1016.30 1016.28 1016.29 1016.38 1016.57 1016.85 1017.16 1017.45 1017.65 1017.72
1009.75 1009.85 1009.62 1009.04 1008.16 1007.07 1005.91 1004.83 1003.97 1003.43 1003.24 1003.37 1003.75 1004.27 1004.83 1005.36 1005.83 1006.26 1006.69 1007.20 1007.82 1008.59 1009.49 1010.47 1011.42 1012.28 1012.98 1013.49 1013.84 1014.06 1014.24 1014.44 1014.70 1015.02 1015.38 1015.74 1016.03 1016.23 1016.33 1016.35 1016.34 1016.36 1016.47 1016.67 1016.95 1017.26 1017.53 1017.71 1017.75
1009.48 1009.40 1009.00 1008.30 1007.37 1006.31 1005.27 1004.38 1003.74 1003.41 1003.39 1003.63 1004.03 1004.51 1004.98 1005.39 1005.75 1006.10 1006.49 1007.00 1007.67 1008.51 1009.46 1010.47 1011.43 1012.27 1012.92 1013.38 1013.67 1013.86 1014.02 1014.22 1014.51 1014.86 1015.26 1015.65 1015.98 1016.20 1016.32 1016.36 1016.37 1016.41 1016.52 1016.72 1016.98 1017.27 1017.52 1017.66 1017.68
1009.17 1008.96 1008.46 1007.72 1006.82 1005.87 1005.00 1004.31 1003.88 1003.74 1003.84 1004.13 1004.51 1004.90 1005.24 1005.52 1005.76 1006.02 1006.37 1006.88 1007.58 1008.45 1009.43 1010.45 1011.40 1012.19 1012.79 1013.19 1013.43 1013.58 1013.73 1013.93 1014.23 1014.61 1015.05 1015.48 1015.84 1016.10 1016.26 1016.33 1016.36 1016.41 1016.52 1016.70 1016.94 1017.19 1017.40 1017.52 1017.51
1008.88 1008.60 1008.09 1007.39 1006.60 1005.82 1005.15 1004.68 1004.43 1004.42 1004.59 1004.86 1005.16 1005.43 1005.62 1005.76 1005.88 1006.06 1006.38 1006.88 1007.58 1008.46 1009.45 1010.45 1011.36 1012.10 1012.64 1012.98 1013.18 1013.30 1013.43 1013.63 1013.93 1014.33 1014.79 1015.25 1015.65 1015.95 1016.15 1016.25 1016.31 1016.37 1016.47 1016.63 1016.82 1017.03 1017.19 1017.28 1017.27
1008.67 1008.39 1007.94 1007.36 1006.75 1006.17 1005.72 1005.44 1005.34 1005.40 1005.57 1005.77 1005.96 1006.07 1006.12 1006.12 1006.14 1006.25 1006.53 1007.02 1007.72 1008.59 1009.55 1010.51 1011.36 1012.05 1012.53 1012.82 1012.98 1013.07 1013.19 1013.38 1013.68 1014.08 1014.55 1015.02 1015.45 1015.78 1016.01 1016.15 1016.24 1016.31 1016.40 1016.52 1016.67 1016.82 1016.94 1017.01 1016.99
1008.56 1008.35 1008.02 1007.63 1007.23 1006.88 1006.63 1006.51 1006.50 1006.58 1006.69 1006.78 1006.82 1006.78 1006.68 1006.57 1006.52 1006.59 1006.85 1007.32 1008.00 1008.84 1009.75 1010.65 1011.44 1012.07 1012.50 1012.75 1012.88 1012.96 1013.06 1013.23 1013.52 1013.91 1014.36 1014.82 1015.25 1015.61 1015.87 1016.04 1016.15 1016.23 1016.31 1016.40 1016.51 1016.61 1016.69 1016.72 1016.70
1008.55 1008.47 1008.31 1008.12 1007.95 1007.82 1007.75 1007.74 1007.77 1007.81 1007.82 1007.78 1007.66 1007.48 1007.27 1007.08 1006.99 1007.05 1007.30 1007.77 1008.42 1009.21 1010.06 1010.88 1011.60 1012.16 1012.55 1012.78 1012.90 1012.97 1013.06 1013.22 1013.47 1013.82 1014.23 1014.67 1015.08 1015.44 1015.72 1015.92 1016.06 1016.16 1016.24 1016.31 1016.37 1016.44 1016.47 1016.48 1016.45
1008.64 1008.69 1008.71 1008.75 1008.79 1008.85 1008.92 1008.97 1008.99 1008.95 1008.84 1008.65 1008.39 1008.10 1007.82 1007.60 1007.51 1007.59 1007.86 1008.32 1008.94 1009.68 1010.45 1011.19 1011.83 1012.33 1012.69 1012.91 1013.03 1013.10 1013.19 1013.32 1013.53 1013.82 1014.16 1014.54 1014.92 1015.27 1015.56 1015.79 1015.96 1016.09 1016.17 1016.24 1016.28 1016.31 1016.32 1016.30 1016.26
1008.77 1008.95 1009.15 1009.37 1009.60 1009.81 1009.97 1010.05 1010.02 1009.88 1009.64 1009.32 1008.95 1008.59 1008.29 1008.10 1008.05 1008.18 1008.48 1008.94 1009.53 1010.19 1010.87 1011.52 1012.08 1012.53 1012.86 1013.09 1013.22 1013.31 1013.39 1013.49 1013.64 1013.85 1014.12 1014.43 1014.75 1015.07 1015.37 1015.63 1015.84 1016.00 1016.11 1016.19 1016.23 1016.25 1016.23 1016.20 1016.14
1008.91 1009.20 1009.55 1009.93 1010.30 1010.61 1010.82 1010.89 1010.80 1010.55 1010.19 1009.77 1009.33 1008.95 1008.68 1008.54 1008.58 1008.77 1009.12 1009.58 1010.12 1010.70 1011.28 1011.83 1012.31 1012.71 1013.03 1013.27 1013.43 1013.53 1013.61 1013.68 1013.78 1013.90 1014.08 1014.30 1014.56 1014.84 1015.14 1015.42 1015.68 1015.88 1016.04 1016.15 1016.20 1016.22 1016.20 1016.16 1016.09
1009.04 1009.41 1009.87 1010.36 1010.84 1011.22 1011.45 1011.48 1011.32 1010.98 1010.52 1010.02 1009.56 1009.20 1008.99 1008.95 1009.08 1009.36 1009.74 1010.19 1010.68 1011.16 1011.63 1012.08 1012.48 1012.84 1013.15 1013.40 1013.60 1013.73 1013.82 1013.86 1013.89 1013.94 1014.02 1014.15 1014.33 1014.58 1014.87 1015.18 1015.47 1015.73 1015.94 1016.09 1016.17 1016.21 1016.20 1016.16 1016.10
1009.14 1009.57 1010.11 1010.69 1011.24 1011.66 1011.88 1011.88 1011.64 1011.22 1010.69 1010.15 1009.69 1009.38 1009.26 1009.32 1009.55 1009.90 1010.32 1010.75 1011.17 1011.55 1011.91 1012.25 1012.57 1012.89 1013.19 1013.47 1013.71 1013.88 1013.97 1014.01 1013.99 1013.96 1013.95 1013.99 1014.11 1014.31 1014.59 1014.91 1015.24 1015.55 1015.81 1016.00 1016.13 1016.19 1016.20 1016.19 1016.15
1009.23 1009.71 1010.32 1010.96 1011.56 1012.00 1012.21 1012.16 1011.86 1011.37 1010.79 1010.23 1009.79 1009.54 1009.50 1009.67 1009.99 1010.40 1010.83 1011.23 1011.57 1011.85 1012.09 1012.33 1012.58 1012.86 1013.17 1013.48 1013.75 1013.97 1014.09 1014.12 1014.07 1013.98 1013.90 1013.86 1013.92 1014.08 1014.33 1014.66 1015.02 1015.36 1015.66 1015.90 1016.05 1016.15 1016.19 1016.20 1016.19
1009.33 1009.86 1010.53 1011.23 1011.87 1012.32 1012.52 1012.42 1012.06 1011.51 1010.89 1010.31 1009.89 1009.69 1009.73 1009.97 1010.36 1010.81 1011.24 1011.59 1011.86 1012.05 1012.19 1012.33 1012.52 1012.77 1013.09 1013.43 1013.76 1014.02 1014.19 1014.23 1014.17 1014.04 1013.91 1013.81 1013.81 1013.93 1014.15 1014.47 1014.84 1015.20 1015.52 1015.77 1015.95 1016.07 1016.14 1016.18 1016.21
1009.45 1010.05 1010.78 1011.55 1012.23 1012.69 1012.87 1012.73 1012.31 1011.69 1011.02 1010.42 1010.00 1009.83 1009.90 1010.20 1010.62 1011.09 1011.51 1011.83 1012.03 1012.14 1012.20 1012.28 1012.42 1012.66 1012.99 1013.37 1013.75 1014.08 1014.29 1014.36 1014.31 1014.17 1014.00 1013.87 1013.82 1013.89 1014.09 1014.38 1014.72 1015.07 1015.39 1015.64 1015.83 1015.95 1016.04 1016.10 1016.16
1009.60 1010.28 1011.10 1011.93 1012.64 1013.11 1013.26 1013.07 1012.59 1011.91 1011.18 1010.53 1010.08 1009.90 1009.99 1010.30 1010.74 1011.21 1011.62 1011.92 1012.08 1012.14 1012.15 1012.19 1012.32 1012.56 1012.91 1013.33 1013.77 1014.14 1014.41 1014.52 1014.50 1014.37 1014.19 1014.03 1013.96 1013.99 1014.13 1014.38 1014.69 1015.00 1015.29 1015.51 1015.67 1015.78 1015.87 1015.94 1016.03
1009.77 1010.54 1011.44 1012.33 1013.07 1013.54 1013.66 1013.42 1012.86 1012.10 1011.29 1010.58 1010.09 1009.87 1009.93 1010.23 1010.67 1011.15 1011.56 1011.85 1012.01 1012.06 1012.07 1012.11 1012.24 1012.49 1012.87 1013.33 1013.81 1014.23 1014.54 1014.70 1014.71 1014.60 1014.43 1014.27 1014.17 1014.16 1014.26 1014.46 1014.71 1014.97 1015.19 1015.37 1015.49 1015.57 1015.63 1015.70 1015.79
1009.92 1010.77 1011.74 1012.67 1013.43 1013.90 1013.98 1013.68 1013.05 1012.20 1011.31 1010.52 1009.95 1009.68 1009.71 1009.98 1010.41 1010.89 1011.32 1011.64 1011.84 1011.92 1011.97 1012.04 1012.20 1012.48 1012.88 1013.37 1013.88 1014.33 1014.68 1014.87 1014.91 1014.83 1014.67 1014.51 1014.39 1014.36 1014.41 1014.55 1014.74 1014.93 1015.09 1015.21 1015.27 1015.31 1015.34 1015.39 1015.47
1010.02 1010.92 1011.92 1012.88 1013.64 1014.07 1014.11 1013.75 1013.05 1012.14 1011.17 1010.30 1009.67 1009.33 1009.32 1009.56 1009.99 1010.49 1010.96 1011.34 1011.60 1011.76 1011.87 1012.00 1012.21 1012.53 1012.95 1013.44 1013.95 1014.42 1014.77 1014.98 1015.04 1014.98 1014.84 1014.68 1014.55 1014.49 1014.51 1014.59 1014.72 1014.84 1014.94 1015.00 1015.01 1015.00 1014.99 1015.01 1015.07
1010.00 1010.92 1011.92 1012.86 1013.59 1013.99 1013.98 1013.58 1012.83 1011.86 1010.85 1009.93 1009.24 1008.87 1008.81 1009.04 1009.48 1010.01 1010.53 1010.99 1011.34 1011.60 1011.81 1012.01 1012.27 1012.61 1013.04 1013.52 1014.01 1014.45 1014.79 1015.00 1015.06 1015.01 1014.88 1014.72 1014.59 1014.51 1014.50 1014.54 1014.61 1014.68 1014.73 1014.73 1014.70 1014.65 1014.61 1014.59 1014.62
1009.85 1010.73 1011.69 1012.57 1013.25 1013.60 1013.56 1013.13 1012.36 1011.39 1010.36 1009.44 1008.74 1008.34 1008.28 1008.51 1008.96 1009.53 1010.12 1010.66 1011.12 1011.48 1011.78 1012.07 1012.37 1012.73 1013.14 1013.59 1014.03 1014.42 1014.71 1014.89 1014.93 1014.88 1014.76 1014.61 1014.47 1014.38 1014.35 1014.36 1014.39 1014.42 1014.43 1014.41 1014.36 1014.28 1014.22 1014.18 1014.18
1009.56 1010.35 1011.21 1012.01 1012.61 1012.91 1012.85 1012.42 1011.68 1010.75 1009.77 1008.89 1008.22 1007.85 1007.80 1008.05 1008.52 1009.13 1009.79 1010.41 1010.96 1011.42 1011.80 1012.15 1012.49 1012.84 1013.22 1013.61 1013.98 1014.30 1014.53 1014.66 1014.68 1014.61 1014.48 1014.34 1014.21 1014.11 1014.07 1014.06 1014.08 1014.09 1014.08 1014.05 1013.99 1013.91 1013.83 1013.78 1013.76
1009.15 1009.82 1010.55 1011.23 1011.74 1011.99 1011.91 1011.51 1010.85 1010.01 1009.14 1008.35 1007.77 1007.47 1007.47 1007.74 1008.24 1008.89 1009.59 1010.27 1010.88 1011.41 1011.86 1012.24 1012.59 1012.93 1013.26 1013.58 1013.87 1014.11 1014.27 1014.34 1014.32 1014.24 1014.11 1013.97 1013.85 1013.76 1013.71 1013.69 1013.70 1013.71 1013.70 1013.67 1013.62 1013.54 1013.47 1013.41 1013.37
1008.69 1009.21 1009.79 1010.33 1010.73 1010.92 1010.85 1010.51 1009.95 1009.25 1008.52 1007.89 1007.43 1007.23 1007.29 1007.61 1008.14 1008.80 1009.52 1010.22 1010.87 1011.43 1011.91 1012.31 1012.66 1012.96 1013.24 1013.49 1013.70 1013.86 1013.95 1013.97 1013.93 1013.83 1013.71 1013.58 1013.46 1013.38 1013.33 1013.32 1013.32 1013.32 1013.32 1013.30 1013.25 1013.19 1013.13 1013.07 1013.02
Thickness
5840 5841 5841 5834 5817 5801 5787 5816 5856 5860 5863 5874 5877 5869 5851 5840 5829 5813 5849 5860 5851 5839 5828 5821 5816 5811 5808 5804 5801 5798 5795 5791 5788 5786 5783 5780 5778 5775 5773 5771 5769 5768 5766 5764 5763 5762 5760 5759 5758
5845 5846 5840 5829 5809 5779 5778 5819 5848 5860 5870 5879 5876 5868 5853 5843 5850 5847 5852 5855 5849 5837 5828 5820 5814 5809 5805 5802 5799 5796 5793 5790 5786 5784 5781 5778 5776 5774 5772 5770 5768 5766 5765 5763 5762 5760 5759 5758 5757
5845 5848 5833 5828 5815 5795 5797 5836 5857 5871 5880 5876 5866 5864 5851 5842 5849 5850 5854 5855 5846 5836 5826 5816 5811 5807 5803 5800 5796 5793 5790 5787 5784 5782 5779 5777 5775 5772 5770 5768 5767 5765 5764 5762 5760 5759 5758 5756 5755
5841 5840 5834 5825 5821 5833 5839 5853 5865 5867 5872 5875 5864 5846 5847 5856 5856 5855 5858 5853 5841 5832 5823 5813 5808 5804 5800 5797 5793 5790 5787 5784 5782 5780 5777 5775 5773 5771 5769 5767 5765 5764 5762 5761 5759 5757 5756 5755 5754
5840 5831 5820 5817 5823 5842 5857 5862 5867 5860 5860 5863 5858 5835 5832 5853 5861 5858 5855 5849 5840 5831 5820 5811 5805 5801 5797 5794 5791 5788 5785 5782 5779 5777 5775 5773 5771 5769 5767 5765 5763 5762 5761 5759 5757 5756 5754 5753 5752
5828 5828 5811 5813 5829 5846 5856 5863 5865 5856 5852 5856 5845 5828 5827 5847 5852 5854 5853 5848 5842 5831 5819 5809 5803 5799 5795 5791 5788 5785 5782 5779 5777 5775 5773 5771 5769 5767 5765 5763 5761 5760 5758 5757 5755 5754 5753 5752 5750
5817 5814 5808 5820 5830 5838 5852 5863 5857 5849 5839 5848 5848 5825 5822 5837 5847 5853 5851 5848 5841 5831 5818 5809 5802 5797 5792 5788 5785 5782 5779 5777 5774 5772 5770 5768 5766 5765 5763 5761 5759 5758 5756 5755 5754 5753 5751 5750 5749
5828 5814 5809 5823 5830 5837 5856 5860 5860 5850 5843 5855 5851 5824 5810 5830 5843 5847 5846 5843 5837 5828 5820 5811 5804 5797 5791 5787 5783 5779 5777 5774 5772 5769 5767 5765 5763 5762 5760 5759 5757 5756 5754 5753 5752 5751 5750 5748 5747
5830 5803 5802 5821 5829 5836 5852 5848 5850 5853 5846 5846 5847 5837 5831 5837 5838 5836 5834 5832 5828 5823 5818 5814 5806 5798 5794 5788 5782 5778 5775 5772 5769 5767 5764 5762 5761 5759 5757 5756 5754 5753 5751 5750 5749 5748 5747 5746 5745
5819 5799 5813 5832 5836 5836 5839 5838 5837 5830 5822 5816 5823 5825 5831 5832 5831 5826 5822 5819 5816 5812 5813 5810 5805 5798 5794 5791 5782 5778 5775 5771 5768 5766 5762 5760 5759 5757 5756 5754 5751 5749 5748 5748 5747 5747 5746 5745 5745
5819 5810 5821 5830 5837 5836 5832 5832 5834 5817 5796 5788 5795 5807 5818 5824 5822 5819 5817 5815 5810 5808 5807 5805 5799 5794 5792 5787 5781 5778 5775 5770 5766 5764 5761 5758 5757 5754 5753 5751 5748 5746 5744 5744 5744 5744 5743 5743 5744
5816 5819 5823 5825 5832 5829 5827 5826 5819 5803 5792 5797 5798 5805 5811 5813 5811 5810 5809 5809 5806 5803 5800 5799 5795 5790 5786 5782 5779 5775 5772 5767 5765 5761 5758 5756 5753 5751 5749 5748 5746 5743 5742 5742 5742 5741 5741 5741 5741
5815 5818 5825 5828 5828 5828 5822 5812 5806 5793 5792 5798 5801 5802 5803 5806 5806 5807 5806 5803 5800 5795 5794 5792 5789 5784 5780 5775 5772 5770 5766 5763 5760 5757 5753 5751 5749 5747 5745 5743 5742 5740 5739 5739 5737 5737 5737 5737 5738
5818 5818 5818 5818 5819 5818 5809 5803 5799 5787 5791 5791 5795 5797 5801 5799 5800 5796 5795 5792 5790 5789 5788 5787 5782 5777 5773 5768 5765 5763 5761 5757 5755 5753 5750 5747 5744 5742 5740 5738 5737 5736 5736 5735 5734 5734 5733 5732 5733
5820 5804 5799 5802 5805 5808 5802 5778 5779 5784 5792 5787 5789 5791 5792 5793 5791 5786 5787 5785 5785 5785 5784 5780 5776 5771 5766 5763 5760 5759 5756 5753 5749 5748 5746 5743 5740 5738 5736 5734 5734 5733 5733 5731 5731 5731 5730 5729 5729
5809 5791 5774 5787 5796 5797 5783 5751 5770 5781 5779 5779 5781 5782 5781 5782 5782 5783 5783 5783 5783 5781 5776 5774 5772 5766 5761 5758 5756 5755 5752 5749 5746 5745 5742 5739 5736 5733 5731 5731 5731 5730 5729 5728 5727 5726 5725 5724 5724
5789 5771 5765 5778 5794 5787 5771 5746 5759 5772 5770 5770 5773 5774 5772 5772 5774 5777 5778 5778 5776 5774 5770 5766 5764 5760 5757 5754 5752 5750 5747 5745 5744 5741 5738 5735 5733 5730 5728 5727 5727 5726 5724 5723 5723 5721 5719 5718 5719
5783 5783 5776 5774 5789 5780 5764 5743 5746 5759 5762 5767 5770 5769 5768 5766 5768 5772 5774 5773 5771 5769 5766 5761 5759 5756 5753 5750 5747 5745 5743 5742 5741 5738 5734 5731 5729 5726 5724 5723 5722 5721 5720 5718 5716 5714 5715 5714 5713
5806 5794 5781 5782 5795 5776 5758 5746 5747 5756 5759 5763 5766 5766 5764 5764 5767 5769 5769 5770 5767 5763 5760 5757 5754 5751 5748 5744 5741 5738 5737 5737 5736 5735 5732 5729 5725 5723 5720 5718 5716 5716 5714 5713 5711 5710 5708 5707 5709
5804 5790 5780 5785 5794 5779 5758 5749 5754 5759 5762 5763 5765 5765 5763 5762 5762 5764 5765 5766 5762 5759 5757 5755 5751 5748 5745 5742 5739 5737 5734 5733 5734 5732 5728 5726 5722 5719 5718 5714 5711 5710 5708 5707 5707 5705 5702 5701 5703
5798 5790 5784 5780 5784 5777 5755 5739 5745 5757 5763 5766 5768 5768 5767 5764 5760 5761 5762 5762 5761 5758 5755 5754 5748 5745 5742 5740 5737 5735 5732 5729 5727 5725 5724 5722 5719 5716 5713 5710 5707 5705 5702 5701 5701 5699 5697 5693 5695
5791 5803 5795 5784 5770 5753 5753 5726 5738 5751 5756 5760 5764 5766 5766 5765 5763 5762 5761 5760 5759 5757 5755 5751 5747 5743 5740 5737 5733 5728 5724 5720 5720 5720 5719 5718 5715 5713 5710 5707 5704 5700 5698 5696 5695 5695 5691 5689 5686
5801 5806 5793 5780 5764 5753 5755 5740 5738 5753 5751 5758 5762 5764 5766 5766 5764 5761 5761 5761 5760 5758 5754 5750 5745 5740 5737 5733 5730 5725 5721 5719 5718 5716 5714 5712 5711 5710 5708 5704 5701 5696 5693 5691 5689 5687 5686 5683 5681
5812 5795 5778 5759 5741 5725 5751 5749 5740 5755 5758 5762 5765 5766 5767 5767 5765 5762 5762 5761 5758 5757 5754 5749 5742 5736 5733 5730 5727 5722 5717 5714 5711 5709 5707 5706 5706 5706 5704 5701 5697 5692 5688 5685 5683 5681 5679 5677 5675
5800 5773 5738 5718 5706 5714 5760 5760 5756 5774 5779 5775 5769 5767 5769 5768 5764 5761 5759 5757 5755 5753 5750 5746 5739 5733 5731 5728 5724 5719 5715 5711 5708 5706 5704 5702 5700 5699 5697 5694 5689 5686 5682 5679 5677 5674 5672 5670 5668
5796 5782 5748 5728 5724 5737 5763 5760 5771 5790 5791 5787 5779 5774 5769 5768 5767 5764 5762 5759 5756 5753 5749 5744 5738 5732 5728 5725 5721 5717 5713 5709 5707 5704 5700 5697 5694 5693 5691 5687 5683 5679 5676 5673 5670 5667 5665 5664 5662
5793 5789 5794 5770 5759 5741 5752 5768 5775 5790 5786 5784 5779 5774 5768 5769 5768 5766 5765 5762 5758 5753 5747 5743 5736 5730 5726 5723 5719 5715 5711 5707 5703 5700 5697 5694 5691 5688 5685 5680 5676 5672 5669 5665 5662 5659 5657 5655 5654
5805 5801 5793 5772 5749 5736 5734 5747 5758 5770 5775 5779 5778 5775 5773 5773 5772 5770 5766 5762 5758 5752 5747 5742 5735 5728 5724 5720 5717 5716 5710 5706 5702 5698 5693 5689 5685 5681 5677 5673 5669 5665 5662 5658 5654 5651 5649 5647 5645
5789 5789 5788 5784 5777 5746 5718 5730 5774 5779 5783 5782 5781 5781 5780 5777 5774 5771 5766 5762 5756 5750 5745 5739 5733 5728 5723 5719 5715 5710 5707 5703 5699 5694 5691 5687 5682 5677 5672 5667 5662 5658 5654 5650 5646 5643 5640 5637 5636
5798 5791 5787 5766 5764 5771 5754 5751 5795 5796 5795 5791 5787 5786 5784 5781 5776 5771 5766 5759 5753 5748 5743 5737 5733 5728 5724 5720 5715 5709 5705 5700 5695 5691 5687 5682 5677 5671 5666 5661 5656 5652 5648 5643 5639 5635 5632 5629 5627